Flag for Finland Weather past 2 weeks in Helsinki, Finland

Now
68 °F

Clear.


Feels Like: 68 °F
Forecast: 63 / 81 °F
Wind: 1 mph from East

Location: Helsinki Malmi Airport

Current Time: Jul 26, 2014 at 12:41:05 AM

Latest Report: Jul 25, 2014 at 11:50 PM


Visibility: 10 mi

Pressure: 30.12 "Hg

Humidity: 88%

Dew point: 64 °F

Location of HelsinkiLocation

Historic Weather in Helsinki — Graph

°F

Helsinki temperature yesterday

Maximum temperature yesterday: 82 °F (at 1:20 PM)
Minimum temperature yesterday: 59 °F (at 3:20 AM)
Average temperature yesterday: 73 °F

Past Weeks' High & Low Weather Summary

 TemperatureHumidityPressure
High84 °F (Jul 23, 1:50 PM)100% (Jul 15, 12:20 AM)30.27 "Hg (Jul 15, 12:20 AM)
Low46 °F (Jul 11, 3:20 AM)35% (Jul 23, 1:50 PM)29.83 "Hg (Jul 13, 8:50 PM)
Average67 °F72%30.08 "Hg
* Reported Jul 10 11:20 PM — Jul 25 11:20 PM, Helsinki, Weather by CustomWeather, © 2014

Note: Actual official high and low records may vary slightly from our data, if they occured in-between our weather recording intervals... More about our weather records

Advertising

Helsinki weather history for previous 24 hours

 ConditionsComfort  
Time TempWeatherWind HumidityBarometerVisibility
11:20 PM
Jul 25
68 °FClear.No wind88%30.12 "Hg6 mi
10:50 PM70 °FSunny.No wind83%30.12 "Hg10 mi
10:20 PM75 °FSunny.2 mph69%30.12 "Hg10 mi
9:50 PM75 °FSunny.3 mph69%30.12 "Hg10 mi
9:20 PM77 °FSunny.3 mph65%30.12 "Hg10 mi
8:50 PM79 °FSunny.5 mph58%30.12 "Hg10 mi
8:20 PM79 °FSunny.7 mph54%30.12 "Hg10 mi
7:50 PM81 °FPassing clouds.7 mph48%30.12 "HgN/A
7:20 PM81 °FPassing clouds.7 mph45%30.12 "HgN/A
6:50 PM81 °FSunny.8 mph45%30.12 "Hg10 mi
6:20 PM81 °FPassing clouds.9 mph42%30.12 "HgN/A
5:50 PM82 °FSunny.9 mph40%30.12 "Hg10 mi
5:20 PM82 °FSunny.9 mph37%30.12 "Hg10 mi
4:50 PM82 °FPassing clouds.9 mph37%30.15 "HgN/A
4:20 PM82 °FSunny.10 mph37%30.15 "Hg10 mi
3:20 PM82 °FPassing clouds.9 mph40%30.15 "HgN/A
2:50 PM81 °FPassing clouds.9 mph42%30.15 "HgN/A
2:20 PM81 °FSunny.10 mph42%30.18 "Hg10 mi
1:50 PM81 °FPassing clouds.10 mph42%30.18 "HgN/A
1:20 PM82 °FPassing clouds.9 mph37%30.18 "HgN/A
12:50 PM81 °FPassing clouds.7 mph42%30.18 "HgN/A
12:20 PM81 °FPassing clouds.7 mph45%30.18 "HgN/A
11:50 AM79 °FPassing clouds.8 mph51%30.18 "HgN/A
11:20 AM79 °FPassing clouds.6 mph54%30.18 "HgN/A
10:50 AM79 °FPassing clouds.6 mph58%30.18 "HgN/A
10:20 AM77 °FPassing clouds.6 mph61%30.18 "HgN/A
9:50 AM75 °FPassing clouds.5 mph65%30.18 "HgN/A
9:20 AM75 °FPassing clouds.6 mph65%30.18 "HgN/A
8:50 AM75 °FPassing clouds.6 mph65%30.18 "HgN/A
8:20 AM73 °FSunny.3 mph74%30.18 "Hg10 mi
7:50 AM72 °FSunny.3 mph78%30.18 "Hg10 mi
7:20 AM66 °FSunny.No wind88%30.18 "Hg10 mi
6:50 AM63 °FSunny.No wind94%30.18 "Hg10 mi
6:20 AM61 °FSunny.No wind100%30.18 "Hg10 mi
5:50 AM59 °FFog.No wind94%30.18 "Hg3 mi
5:20 AM59 °FFog.No wind94%30.18 "Hg3 mi
4:50 AM59 °FFog.No wind100%30.18 "Hg2 mi
4:20 AM59 °FClear.No wind94%30.18 "Hg4 mi
3:50 AM59 °FFog.No wind100%30.18 "Hg2 mi
3:20 AM59 °FClear.No wind100%30.18 "Hg10 mi
2:50 AM61 °FClear.No wind94%30.18 "Hg10 mi
2:20 AM61 °FClear.No wind94%30.18 "Hg10 mi
1:50 AM61 °FClear.No wind94%30.18 "Hg10 mi
1:20 AM61 °FClear.No wind94%30.18 "Hg10 mi
12:50 AM63 °FClear.No wind88%30.18 "Hg10 mi
12:20 AM63 °FClear.No wind88%30.18 "Hg10 mi
Weather by CustomWeather, © 2014

See weather overviewHow to use our weather pages